When you browse on this site, cookies collect data to enhance your experience and personalize the content and advertising you see.
Visit our Privacy Policy to learn more. By continuing to use the site, you agree to this use of cookies and data.
  • In Hungary
  • List of Countries
  • For 7 days
  • Water Temperature
  • Weather Map
  • News
  • Weather Widgets
  • user-avatar
    Login

    Hourly Weather Boa Viagem

    Today, 22 November, Friday

    Time Temperature Precipitation Wind Pressure Humidity
    00:00 +25°C° 0 mm 2 mps 731 mmHg 82%
    01:00 +24°C° 0 mm 2 mps 731 mmHg 83%
    02:00 +24°C° 0 mm 2 mps 730 mmHg 84%
    03:00 +24°C° 0 mm 2 mps 730 mmHg 85%
    04:00 +25°C° 0 mm 2 mps 731 mmHg 83%
    05:00 +25°C° 0 mm 3 mps 731 mmHg 81%
    06:00 +25°C° 0 mm 3 mps 732 mmHg 79%
    07:00 +27°C° 0 mm 3 mps 732 mmHg 70%
    08:00 +29°C° 0 mm 3 mps 732 mmHg 60%
    09:00 +30°C° 0 mm 3 mps 733 mmHg 50%
    10:00 +34°C° 0 mm 3 mps 732 mmHg 43%
    11:00 +36°C° 0 mm 3 mps 732 mmHg 36%
    12:00 +38°C° 0 mm 3 mps 731 mmHg 29%
    13:00 +38°C° 0 mm 3 mps 731 mmHg 27%
    14:00 +39°C° 0 mm 3 mps 730 mmHg 24%
    15:00 +39°C° 0 mm 3 mps 729 mmHg 22%
    16:00 +38°C° 0 mm 2 mps 729 mmHg 24%
    17:00 +36°C° 0 mm 2 mps 729 mmHg 27%
    18:00 +33°C° 0 mm 1 mps 730 mmHg 29%
    19:00 +31°C° 0 mm 1 mps 730 mmHg 37%
    20:00 +30°C° 0 mm 2 mps 731 mmHg 44%
    21:00 +28°C° 0 mm 2 mps 731 mmHg 52%
    22:00 +27°C° 0 mm 2 mps 731 mmHg 59%
    23:00 +26°C° 0 mm 2 mps 731 mmHg 66%

    Tomorrow, 23 November, Saturday

    Time Temperature Precipitation Wind Pressure Humidity
    00:00 +25°C° 0 mm 2 mps 731 mmHg 73%
    01:00 +25°C° 0 mm 2 mps 731 mmHg 77%
    02:00 +25°C° 0 mm 2 mps 731 mmHg 82%
    03:00 +25°C° 0 mm 2 mps 730 mmHg 86%
    04:00 +25°C° 0 mm 2 mps 731 mmHg 83%
    05:00 +26°C° 0 mm 3 mps 731 mmHg 81%
    06:00 +26°C° 0 mm 3 mps 732 mmHg 78%
    07:00 +27°C° 0 mm 3 mps 732 mmHg 71%
    08:00 +28°C° 0 mm 3 mps 732 mmHg 64%
    09:00 +30°C° 0 mm 3 mps 733 mmHg 57%
    10:00 +33°C° 0 mm 3 mps 732 mmHg 47%
    11:00 +36°C° 0 mm 3 mps 732 mmHg 38%
    12:00 +39°C° 0 mm 3 mps 731 mmHg 29%
    13:00 +39°C° 0 mm 3 mps 731 mmHg 27%
    14:00 +39°C° 0 mm 3 mps 730 mmHg 25%
    15:00 +40°C° 0 mm 3 mps 729 mmHg 23%
    16:00 +38°C° 0 mm 2 mps 729 mmHg 25%
    17:00 +37°C° 0 mm 2 mps 729 mmHg 28%
    18:00 +34°C° 0 mm 1 mps 730 mmHg 30%
    19:00 +32°C° 0 mm 2 mps 730 mmHg 38%
    20:00 +31°C° 0 mm 2 mps 731 mmHg 46%
    21:00 +29°C° 0 mm 3 mps 731 mmHg 54%
    22:00 +28°C° 0 mm 3 mps 731 mmHg 61%
    23:00 +27°C° 0 mm 2 mps 731 mmHg 68%

    Day after tomorrow, 24 November, Sunday

    Time Temperature Precipitation Wind Pressure Humidity
    00:00 +25°C° 0 mm 2 mps 731 mmHg 74%
    01:00 +25°C° 0 mm 2 mps 731 mmHg 78%
    02:00 +25°C° 0 mm 2 mps 730 mmHg 81%
    03:00 +25°C° 0 mm 2 mps 730 mmHg 85%
    04:00 +26°C° 0 mm 2 mps 731 mmHg 82%
    05:00 +26°C° 0 mm 2 mps 731 mmHg 79%
    06:00 +27°C° 0 mm 2 mps 732 mmHg 75%
    07:00 +27°C° 0 mm 2 mps 732 mmHg 72%
    08:00 +28°C° 0 mm 2 mps 732 mmHg 68%
    09:00 +29°C° 0 mm 2 mps 732 mmHg 64%
    10:00 +30°C° 0 mm 3 mps 732 mmHg 58%
    11:00 +33°C° 0 mm 3 mps 731 mmHg 51%
    12:00 +35°C° 0 mm 3 mps 731 mmHg 45%
    13:00 +36°C° 0 mm 3 mps 730 mmHg 41%
    14:00 +37°C° 0 mm 2 mps 730 mmHg 36%
    15:00 +38°C° 0 mm 2 mps 729 mmHg 32%
    16:00 +37°C° 0 mm 2 mps 729 mmHg 36%
    17:00 +35°C° 0 mm 2 mps 729 mmHg 40%
    18:00 +32°C° 0 mm 2 mps 729 mmHg 44%
    19:00 +31°C° 0 mm 2 mps 730 mmHg 50%
    20:00 +30°C° 0 mm 2 mps 730 mmHg 56%
    21:00 +29°C° 0 mm 2 mps 731 mmHg 62%
    22:00 +28°C° 0 mm 2 mps 731 mmHg 68%
    23:00 +27°C° 0 mm 2 mps 730 mmHg 74%

    25 November, Monday

    Time Temperature Precipitation Wind Pressure Humidity
    00:00 +26°C° 0 mm 2 mps 730 mmHg 80%
    01:00 +25°C° 0 mm 1 mps 730 mmHg 84%
    02:00 +24°C° 0 mm 1 mps 730 mmHg 87%
    03:00 +24°C° 0 mm 1 mps 730 mmHg 91%
    04:00 +24°C° 0 mm 1 mps 730 mmHg 89%
    05:00 +25°C° 0 mm 2 mps 731 mmHg 87%
    06:00 +25°C° 0 mm 2 mps 731 mmHg 84%
    07:00 +26°C° 0 mm 2 mps 732 mmHg 78%
    08:00 +27°C° 0 mm 2 mps 732 mmHg 71%
    09:00 +29°C° 0 mm 3 mps 732 mmHg 65%
    10:00 +31°C° 0 mm 3 mps 732 mmHg 57%
    11:00 +34°C° 0 mm 3 mps 731 mmHg 49%
    12:00 +36°C° 0 mm 3 mps 731 mmHg 41%
    13:00 +37°C° 0 mm 3 mps 730 mmHg 38%
    14:00 +38°C° 0 mm 3 mps 729 mmHg 34%
    15:00 +39°C° 0 mm 3 mps 728 mmHg 31%
    16:00 +37°C° 0 mm 2 mps 729 mmHg 35%
    17:00 +35°C° 0 mm 2 mps 729 mmHg 39%
    18:00 +32°C° 0 mm 2 mps 729 mmHg 43%
    19:00 +31°C° 0 mm 2 mps 729 mmHg 50%
    20:00 +29°C° 0 mm 3 mps 730 mmHg 57%
    21:00 +28°C° 0 mm 3 mps 731 mmHg 64%
    22:00 +27°C° 0 mm 2 mps 730 mmHg 69%
    23:00 +26°C° 0 mm 2 mps 730 mmHg 75%

    26 November, Tuesday

    Time Temperature Precipitation Wind Pressure Humidity
    00:00 +25°C° 0 mm 1 mps 730 mmHg 81%
    01:00 +25°C° 0 mm 1 mps 730 mmHg 84%
    02:00 +24°C° 0 mm 1 mps 730 mmHg 88%
    03:00 +24°C° 0 mm 1 mps 730 mmHg 91%
    04:00 +24°C° 0.1 mm 2 mps 730 mmHg 89%
    05:00 +25°C° 0.1 mm 2 mps 730 mmHg 87%
    06:00 +25°C° 0.1 mm 3 mps 731 mmHg 85%
    07:00 +27°C° 0 mm 3 mps 731 mmHg 75%
    08:00 +29°C° 0 mm 3 mps 731 mmHg 65%
    09:00 +31°C° 0 mm 3 mps 732 mmHg 55%
    10:00 +33°C° 0 mm 3 mps 731 mmHg 51%
    11:00 +34°C° 0 mm 3 mps 731 mmHg 46%
    12:00 +36°C° 0 mm 3 mps 730 mmHg 42%
    13:00 +36°C° 0 mm 3 mps 730 mmHg 40%
    14:00 +36°C° 0 mm 4 mps 729 mmHg 39%
    15:00 +36°C° 0 mm 4 mps 729 mmHg 38%
    16:00 +35°C° 0 mm 4 mps 729 mmHg 42%
    17:00 +34°C° 0 mm 3 mps 729 mmHg 47%
    18:00 +31°C° 0 mm 3 mps 730 mmHg 51%
    19:00 +30°C° 0 mm 3 mps 730 mmHg 55%
    20:00 +29°C° 0 mm 3 mps 731 mmHg 59%
    21:00 +28°C° 0 mm 3 mps 731 mmHg 63%
    22:00 +27°C° 0 mm 3 mps 731 mmHg 68%
    23:00 +26°C° 0 mm 2 mps 731 mmHg 73%

    27 November, Wednesday

    Time Temperature Precipitation Wind Pressure Humidity
    00:00 +25°C° 0 mm 2 mps 731 mmHg 78%
    01:00 +25°C° 0 mm 2 mps 730 mmHg 82%
    02:00 +24°C° 0 mm 2 mps 730 mmHg 87%
    03:00 +24°C° 0 mm 1 mps 730 mmHg 91%
    04:00 +24°C° 0 mm 1 mps 730 mmHg 91%
    05:00 +24°C° 0 mm 1 mps 731 mmHg 91%
    06:00 +24°C° 0 mm 1 mps 731 mmHg 90%
    07:00 +26°C° 0 mm 2 mps 731 mmHg 78%
    08:00 +29°C° 0 mm 3 mps 732 mmHg 66%
    09:00 +31°C° 0 mm 3 mps 732 mmHg 55%
    10:00 +34°C° 0 mm 3 mps 731 mmHg 47%
    11:00 +36°C° 0 mm 3 mps 731 mmHg 39%
    12:00 +39°C° 0 mm 3 mps 730 mmHg 32%
    13:00 +39°C° 0 mm 3 mps 730 mmHg 30%
    14:00 +39°C° 0 mm 3 mps 729 mmHg 28%
    15:00 +39°C° 0 mm 3 mps 728 mmHg 27%
    16:00 +38°C° 0 mm 3 mps 728 mmHg 30%
    17:00 +36°C° 0 mm 2 mps 729 mmHg 34%
    18:00 +34°C° 0 mm 2 mps 729 mmHg 37%
    19:00 +32°C° 0 mm 2 mps 729 mmHg 45%
    20:00 +30°C° 0 mm 2 mps 730 mmHg 52%
    21:00 +28°C° 0 mm 3 mps 730 mmHg 59%
    22:00 +27°C° 0 mm 3 mps 730 mmHg 66%
    23:00 +26°C° 0 mm 2 mps 730 mmHg 72%
    Show more